Photometre #117[Polarized_P] IAOCA-KRSU AOT

File : 20221128_117.hum

28/11/2022,02:50:40,TEMP=-3.0,BA=5.64,STAT.A
28/11/2022,02:55:07,TEMP=-2.8,BA=5.64,STAT.A
28/11/2022,03:00:23,TEMP=-2.7,BA=5.64,STAT.A
28/11/2022,03:06:44,TEMP=-2.6,BA=5.64,STAT.A
28/11/2022,03:14:33,TEMP=-2.5,BA=5.64,STAT.A
28/11/2022,03:24:24,TEMP=-2.3,BA=5.64,STAT.A
28/11/2022,03:34:05,TEMP=-2.1,BA=5.64,STAT.F
28/11/2022,03:49:05,TEMP=-1.3,BA=5.64,STAT.D
28/11/2022,04:04:05,TEMP=-0.7,BA=5.64,STAT.D
28/11/2022,04:19:05,TEMP=0.0,BA=5.64,STAT.D
28/11/2022,04:34:06,TEMP=1.8,BA=5.64,STAT.F
28/11/2022,05:00:19,TEMP=3.5,BA=5.64,STAT.D
28/11/2022,05:04:06,TEMP=3.4,BA=5.64,STAT.D
28/11/2022,05:19:06,TEMP=3.1,BA=5.64,STAT.D
28/11/2022,05:34:06,TEMP=3.5,BA=5.64,STAT.F
28/11/2022,05:49:06,TEMP=3.9,BA=5.64,STAT.D
28/11/2022,06:04:07,TEMP=4.3,BA=5.64,STAT.D
28/11/2022,06:19:06,TEMP=4.7,BA=5.64,STAT.D
28/11/2022,06:34:06,TEMP=5.2,BA=5.64,STAT.F
28/11/2022,07:01:57,TEMP=5.9,BA=5.64,STAT.D
28/11/2022,07:04:38,TEMP=6.0,BA=5.64,STAT.D
28/11/2022,07:19:06,TEMP=5.9,BA=5.64,STAT.D
28/11/2022,07:34:18,TEMP=5.6,BA=5.64,STAT.F
28/11/2022,07:50:57,TEMP=6.0,BA=5.64,STAT.D
28/11/2022,08:04:06,TEMP=5.8,BA=5.64,STAT.D
28/11/2022,08:19:06,TEMP=6.0,BA=5.64,STAT.D
28/11/2022,08:34:06,TEMP=5.6,BA=5.64,STAT.F
28/11/2022,08:49:06,TEMP=4.9,BA=5.64,STAT.D
28/11/2022,09:04:04,TEMP=3.7,BA=5.64,STAT.D
28/11/2022,09:19:04,TEMP=2.9,BA=5.64,STAT.D
28/11/2022,09:34:04,TEMP=2.4,BA=5.64,STAT.F
28/11/2022,09:43:44,TEMP=2.2,BA=5.64,STAT.A
28/11/2022,09:53:35,TEMP=2.0,BA=5.64,STAT.A
28/11/2022,10:01:24,TEMP=1.8,BA=5.64,STAT.A
28/11/2022,10:07:45,TEMP=1.7,BA=5.64,STAT.A
28/11/2022,10:13:01,TEMP=1.6,BA=5.64,STAT.A
28/11/2022,10:17:28,TEMP=1.5,BA=5.64,STAT.A